Cumberland, WV

10:06 AM EDT on July 24, 2017 (GMT -0400)
Greater Cumberland Regional

Weather History for KCBE - November, 2011

Change the Weather History Date:

Thursday, November 10, 2011

  Actual Average (KMRB) Record (KMRB)
Temperature  
Mean Temperature 46 °F -  
Max Temperature 53 °F 56 °F 76 °F (1975)
Min Temperature 39 °F 37 °F 18 °F (2003)
Degree Days  
Heating Degree Days 19    
Moisture  
Dew Point 37 °F    
Average Humidity 70    
Maximum Humidity 100    
Minimum Humidity 54    
Precipitation  
Precipitation 0.00 in - - ()
Sea Level Pressure  
Sea Level Pressure 29.95 in    
Wind  
Wind Speed 5 mph (WNW)    
Max Wind Speed 15 mph    
Max Gust Speed 25 mph    
Visibility 10 miles    
Events      
Averages and records for this station are not official NWS values.
T = Trace of Precipitation, MM = Missing Value Source: NWS Daily Summary

Daily Weather History Graph

Daily Weather History Graph

Search for Another Location

Airport or City:

Trip Planner

Search our weather history database for the weather conditions in past years. The results will help you decide how hot, cold, wet, or windy it might be!

Date:

Astronomy

Nov. 10, 2011 Rise Set
Actual Time 6:53 AM EST 5:04 PM EST
Civil Twilight 6:24 AM EST 5:32 PM EST
Nautical Twilight 5:52 AM EST 6:04 PM EST
Astronomical Twilight 5:20 AM EST 6:36 PM EST
Moon 4:51 PM EST (11/10) 6:43 AM EST (11/10)
Length of Visible Light 11h 07m
Length of Day
10h 10m
Full, 100% of the Moon is Illuminated
Nov 10
Full
Nov 10
Full
Nov 18
Last Quarter
Nov 25
New
Dec 2
First Quarter

Hourly Weather History & Observations

Time (EST) Temp. Windchill Dew Point Humidity Pressure Visibility Wind Dir Wind Speed Gust Speed Precip Events Conditions
12:24 AM 51.8 °F - 46.4 °F 82% 29.95 in 10.0 mi Calm Calm - N/A   Overcast
1:22 AM 50.0 °F - 48.2 °F 94% 29.95 in 10.0 mi Calm Calm - N/A   Overcast
1:41 AM 50.0 °F - 48.2 °F 94% 29.95 in 10.0 mi Calm Calm - N/A   Overcast
2:00 AM 50.0 °F - 48.2 °F 94% 29.95 in 10.0 mi Calm Calm - N/A   Overcast
2:20 AM 50.0 °F - 50.0 °F 100% 29.95 in 4.0 mi East 3.5 mph - N/A   Overcast
2:39 AM 50.0 °F - 50.0 °F 100% 29.93 in 7.0 mi Calm Calm - N/A   Mostly Cloudy
2:58 AM 50.0 °F - 50.0 °F 100% 29.93 in 10.0 mi Calm Calm - N/A   Mostly Cloudy
3:18 AM 50.0 °F - 50.0 °F 100% 29.93 in 7.0 mi Calm Calm - N/A   Overcast
3:37 AM 50.0 °F - 50.0 °F 100% 29.93 in 7.0 mi WNW 3.5 mph - N/A   Overcast
3:56 AM 50.0 °F - 50.0 °F 100% 29.94 in 7.0 mi NNW 3.5 mph - N/A   Overcast
4:16 AM 53.6 °F - 50.0 °F 88% 29.95 in 10.0 mi West 10.4 mph 18.4 mph N/A   Overcast
4:35 AM 53.6 °F - 46.4 °F 77% 29.96 in 10.0 mi NW 9.2 mph 16.1 mph N/A   Overcast
4:54 AM 53.6 °F - 44.6 °F 72% 29.97 in 10.0 mi NW 10.4 mph 19.6 mph N/A   Overcast
5:14 AM 51.8 °F - 42.8 °F 71% 29.98 in 10.0 mi West 11.5 mph 25.3 mph N/A   Overcast
5:33 AM 51.8 °F - 42.8 °F 71% 29.98 in 10.0 mi NW 9.2 mph 18.4 mph N/A   Overcast
5:52 AM 50.0 °F - 42.8 °F 76% 29.99 in 10.0 mi NW 10.4 mph 19.6 mph N/A   Overcast
6:12 AM 50.0 °F - 41.0 °F 71% 29.99 in 10.0 mi WNW 8.1 mph 19.6 mph N/A   Overcast
6:31 AM 50.0 °F - 41.0 °F 71% 30.00 in 10.0 mi WNW 11.5 mph 25.3 mph N/A   Overcast
6:50 AM 48.2 °F - 39.2 °F 71% 30.01 in 10.0 mi West 4.6 mph 18.4 mph N/A   Overcast
7:10 AM 48.2 °F - 37.4 °F 66% 30.00 in 10.0 mi WNW 9.2 mph 19.6 mph N/A   Overcast
7:48 AM 46.4 °F 41.1 °F 37.4 °F 71% 30.01 in 10.0 mi WNW 11.5 mph 17.3 mph N/A   Mostly Cloudy
8:07 AM 46.4 °F 41.9 °F 37.4 °F 71% 30.01 in 10.0 mi WNW 9.2 mph 17.3 mph N/A   Scattered Clouds
8:27 AM 46.4 °F 41.9 °F 35.6 °F 66% - 10.0 mi West 9.2 mph 19.6 mph N/A   Mostly Cloudy
8:46 AM 46.4 °F 40.1 °F 35.6 °F 66% 30.02 in 10.0 mi NW 15.0 mph 21.9 mph N/A   Overcast
9:05 AM 46.4 °F 42.4 °F 35.6 °F 66% 30.02 in 10.0 mi West 8.1 mph - N/A   Scattered Clouds
9:25 AM 46.4 °F - 35.6 °F 66% 30.03 in 10.0 mi Calm Calm - N/A   Clear
9:44 AM 46.4 °F 41.1 °F 33.8 °F 62% 30.02 in 10.0 mi West 11.5 mph 18.4 mph N/A   Mostly Cloudy
10:03 AM 46.4 °F 41.1 °F 33.8 °F 62% 30.02 in 10.0 mi West 11.5 mph 19.6 mph N/A   Mostly Cloudy
10:23 AM 46.4 °F 40.4 °F 33.8 °F 62% 30.03 in 10.0 mi West 13.8 mph 20.7 mph N/A   Scattered Clouds
10:42 AM 46.4 °F 42.4 °F 33.8 °F 62% 30.02 in 10.0 mi WNW 8.1 mph 19.6 mph N/A   Mostly Cloudy
11:01 AM 46.4 °F 43.5 °F 33.8 °F 62% 30.01 in 10.0 mi WNW 5.8 mph - N/A   Overcast
11:20 AM 46.4 °F 41.9 °F 33.8 °F 62% 30.01 in 10.0 mi NW 9.2 mph 17.3 mph N/A   Overcast
11:40 AM 46.4 °F 40.1 °F 33.8 °F 62% 30.00 in 10.0 mi West 15.0 mph 19.6 mph N/A   Overcast
11:59 AM 46.4 °F 41.1 °F 33.8 °F 62% 29.99 in 10.0 mi West 11.5 mph 17.3 mph N/A   Overcast
12:18 PM 46.4 °F 41.9 °F 33.8 °F 62% - 10.0 mi West 9.2 mph 18.4 mph N/A   Overcast
12:38 PM 48.2 °F - 33.8 °F 58% 29.97 in 10.0 mi NW 4.6 mph - N/A   Mostly Cloudy
12:57 PM 48.2 °F - 33.8 °F 58% 29.95 in 10.0 mi West 4.6 mph - N/A   Mostly Cloudy
1:16 PM 48.2 °F - 32.0 °F 54% 29.95 in 10.0 mi West 10.4 mph - N/A   Scattered Clouds
1:35 PM 48.2 °F - 32.0 °F 54% 29.94 in 10.0 mi WSW 13.8 mph 19.6 mph N/A   Mostly Cloudy
1:55 PM 46.4 °F 42.4 °F 32.0 °F 57% 29.93 in 10.0 mi NNW 8.1 mph 18.4 mph N/A   Overcast
2:14 PM 46.4 °F 40.7 °F 32.0 °F 57% 29.93 in 10.0 mi WNW 12.7 mph 18.4 mph N/A   Mostly Cloudy
2:33 PM 46.4 °F - 32.0 °F 57% 29.93 in 10.0 mi Calm Calm - N/A   Mostly Cloudy
2:53 PM 46.4 °F 40.7 °F 32.0 °F 57% 29.93 in 10.0 mi West 12.7 mph 19.6 mph N/A   Scattered Clouds
3:12 PM 46.4 °F 41.9 °F 32.0 °F 57% 29.92 in 10.0 mi WNW 9.2 mph 19.6 mph N/A   Scattered Clouds
3:31 PM 46.4 °F 41.9 °F 32.0 °F 57% 29.92 in 10.0 mi NW 9.2 mph - N/A   Clear
3:51 PM 46.4 °F 44.3 °F 32.0 °F 57% 29.92 in 10.0 mi West 4.6 mph 21.9 mph N/A   Clear
4:10 PM 44.6 °F 40.7 °F 32.0 °F 61% 29.92 in 10.0 mi NNW 6.9 mph 16.1 mph N/A   Clear
4:29 PM 44.6 °F 43.1 °F 32.0 °F 61% 29.92 in 10.0 mi WNW 3.5 mph - N/A   Clear
4:48 PM 44.6 °F 43.1 °F 32.0 °F 61% 29.92 in 10.0 mi NNW 3.5 mph - N/A   Scattered Clouds
5:08 PM 44.6 °F 42.2 °F 32.0 °F 61% 29.92 in 10.0 mi West 4.6 mph - N/A   Mostly Cloudy
5:27 PM 44.6 °F 39.7 °F 32.0 °F 61% 29.92 in 10.0 mi West 9.2 mph - N/A   Scattered Clouds
5:46 PM 44.6 °F 42.2 °F 32.0 °F 61% 29.93 in 10.0 mi West 4.6 mph - N/A   Scattered Clouds
6:06 PM 44.6 °F 40.2 °F 32.0 °F 61% 29.93 in 10.0 mi WNW 8.1 mph - N/A   Mostly Cloudy
6:25 PM 44.6 °F 43.1 °F 32.0 °F 61% 29.92 in 10.0 mi West 3.5 mph - N/A   Scattered Clouds
6:44 PM 42.8 °F 40.1 °F 32.0 °F 66% 29.92 in 10.0 mi West 4.6 mph - N/A   Clear
7:03 PM 42.8 °F 38.6 °F 32.0 °F 66% 29.92 in 10.0 mi WSW 6.9 mph - N/A   Clear
7:23 PM 42.8 °F 39.3 °F 32.0 °F 66% 29.91 in 10.0 mi West 5.8 mph - N/A   Clear
7:42 PM 42.8 °F 41.1 °F 32.0 °F 66% 29.91 in 10.0 mi WNW 3.5 mph - N/A   Clear
8:01 PM 42.8 °F - 32.0 °F 66% 29.90 in 10.0 mi Calm Calm - N/A   Clear
8:21 PM 41.0 °F 39.0 °F 32.0 °F 70% 29.91 in 10.0 mi WSW 3.5 mph - N/A   Clear
8:40 PM 41.0 °F - 32.0 °F 70% 29.90 in 10.0 mi Calm Calm - N/A   Clear
8:59 PM 39.2 °F - 32.0 °F 75% 29.90 in 10.0 mi Calm Calm - N/A   Clear
9:19 PM 39.2 °F 37.0 °F 32.0 °F 75% 29.91 in 10.0 mi WNW 3.5 mph - N/A   Scattered Clouds
9:38 PM 41.0 °F 34.7 °F 32.0 °F 70% 29.91 in 10.0 mi West 10.4 mph 16.1 mph N/A   Mostly Cloudy
9:57 PM 41.0 °F 34.3 °F 32.0 °F 70% 29.91 in 10.0 mi NNW 11.5 mph 19.6 mph N/A   Mostly Cloudy
10:17 PM 41.0 °F 36.4 °F 33.8 °F 76% 29.92 in 10.0 mi NW 6.9 mph 17.3 mph N/A   Mostly Cloudy
10:36 PM 41.0 °F 38.0 °F 33.8 °F 76% 29.92 in 10.0 mi NW 4.6 mph - N/A   Mostly Cloudy
10:55 PM 41.0 °F 36.4 °F 32.0 °F 70% 29.91 in 10.0 mi WNW 6.9 mph - N/A   Mostly Cloudy
11:15 PM 41.0 °F 37.1 °F 32.0 °F 70% 29.91 in 10.0 mi NW 5.8 mph - N/A   Scattered Clouds
11:34 PM 39.2 °F 37.0 °F 32.0 °F 75% 29.91 in 10.0 mi WNW 3.5 mph - N/A   Scattered Clouds
11:53 PM 39.2 °F 37.0 °F 32.0 °F 75% 29.91 in 10.0 mi West 3.5 mph - N/A   Mostly Cloudy